Wind_Speed
18 13 18 19 21 16 9 11 15 16 16 22 25 28 25 21 21 20 21 26 27 30 27 24 23 24 16 15 15 16 15 17 18 19 19 19 19 18 19 18 16 15 15 16
14 20 17 15 18 17 15 16 14 11 13 18 22 24 24 25 23 22 18 21 27 28 25 16 18 23 18 20 22 22 19 15 16 16 16 15 16 16 15 15 15 16 15 15
17 12 18 17 18 19 17 18 14 11 4 12 17 23 20 21 18 19 19 17 20 28 24 13 19 14 15 19 20 22 18 15 17 13 13 9 10 9 12 13 13 13 14 14
21 15 17 20 21 21 18 16 17 15 10 13 19 13 19 17 19 18 18 18 13 21 19 9 12 18 18 15 13 14 13 14 13 14 12 13 13 11 11 12 12 12 13 13
18 18 17 23 19 19 16 13 14 15 16 17 15 11 12 17 13 19 15 12 17 11 10 13 12 16 10 10 12 12 12 13 13 13 11 11 10 8 8 9 10 12 12 13
17 11 17 16 15 16 16 18 13 16 15 15 18 13 10 14 15 15 12 8 6 8 7 5 4 6 5 7 8 8 11 11 10 10 8 4 3 3 4 6 7 10 12 13
18 16 14 11 12 10 13 13 9 10 13 14 18 12 6 11 9 7 12 13 11 10 10 10 9 8 7 8 9 9 11 11 9 7 5 4 3 2 3 4 7 10 13 15
16 17 21 14 16 12 18 16 11 14 13 15 8 8 5 8 10 11 14 14 13 14 12 14 12 13 14 14 13 11 11 11 9 8 7 6 5 3 5 7 9 13 15 17
17 18 18 19 15 18 13 11 13 9 5 7 12 7 6 9 11 12 13 14 14 14 14 15 15 17 18 17 16 14 13 13 13 11 9 9 8 8 6 8 9 13 15 18
10 13 12 16 14 13 13 14 9 9 11 13 7 14 7 15 12 11 13 13 14 14 13 13 13 16 15 15 14 14 13 12 10 9 9 8 8 9 10 11 13 15 16 17
11 6 7 11 14 17 11 12 11 5 8 10 10 8 9 12 11 10 11 12 12 12 11 11 10 13 14 13 13 12 12 10 10 8 8 9 11 12 14 15 17 18 19 20
16 10 11 13 4 3 3 7 14 8 12 8 10 3 0 9 10 12 12 11 10 10 9 9 9 10 10 10 9 8 8 8 9 11 12 13 15 16 17 18 20 21 23 24
11 5 9 8 11 8 9 5 2 4 6 12 12 3 6 10 11 11 11 10 9 8 7 7 7 8 9 10 11 12 12 12 13 14 16 17 18 19 21 21 23 23 24 26
14 6 7 6 5 13 15 13 11 9 7 10 11 12 12 10 9 8 8 7 7 5 4 5 4 6 8 10 12 13 14 14 16 17 19 20 20 21 21 22 22 22 22 23
8 12 15 8 3 4 7 10 10 10 7 7 3 6 14 13 11 8 5 4 4 3 1 4 5 7 9 10 11 12 14 17 17 19 20 21 22 21 22 22 22 22 22 23
1 8 13 10 6 4 5 6 7 6 5 6 4 5 2 5 2 7 5 3 3 1 5 7 8 10 13 13 15 16 18 19 19 20 22 22 21 21 21 22 22 22 23 23
6 9 12 9 5 4 7 11 12 9 6 7 9 2 9 5 5 4 3 2 2 1 4 7 9 10 13 14 16 19 21 20 20 20 20 20 20 20 21 21 22 23 23 23
10 9 3 5 7 7 7 1 1 8 3 5 3 7 6 7 5 3 7 7 5 8 11 11 11 14 14 16 18 18 19 19 19 19 19 19 20 21 21 22 23 24 23 24
5 5 3 4 7 5 5 6 8 9 9 3 9 7 6 4 6 10 7 7 8 9 10 12 14 16 18 17 18 19 19 19 18 18 18 19 20 21 22 22 23 24 24 25
8 5 3 6 4 5 10 6 2 3 6 5 3 5 5 6 4 6 10 11 11 12 13 15 17 18 17 17 18 18 18 17 16 17 19 20 20 21 23 24 25 26 26 26
6 5 5 5 2 4 5 2 1 5 4 7 7 7 8 7 6 10 12 12 13 14 16 18 17 17 16 18 17 17 16 16 17 18 19 21 22 23 24 24 24 26 24 25
6 6 3 4 3 3 5 5 1 7 9 8 8 9 8 9 10 11 12 12 13 16 18 17 17 16 17 16 16 16 16 16 17 18 20 22 23 23 21 23 25 24 22 24
5 1 5 1 4 10 11 12 9 9 10 9 8 8 9 10 12 13 13 14 14 16 16 16 17 17 15 15 14 15 16 16 17 19 21 22 20 20 21 23 24 22 21 22
4 4 4 7 10 12 13 13 12 12 11 9 9 9 10 11 13 12 12 11 12 15 16 16 16 16 17 14 13 14 15 15 17 19 20 21 20 21 22 24 25 22 20 21
1 5 7 14 13 12 10 12 11 11 10 10 8 8 9 10 12 11 10 11 13 15 16 16 15 14 14 15 15 14 14 15 17 18 19 19 19 19 24 26 25 25 26 23
5 5 5 3 15 6 13 11 10 10 10 9 9 8 8 9 11 12 10 13 14 14 15 15 14 13 16 16 15 14 15 15 16 17 17 18 19 20 22 25 27 29 25 24
Wind_Direction
186 198 203 201 214 231 282 247 231 240 240 235 231 237 223 221 219 239 230 235 229 226 239 265 284 290 279 256 246 230 216 213 203 203 207 213 217 218 217 216 213 209 209 213
181 216 207 216 206 225 246 258 243 263 238 233 230 240 236 229 225 229 236 240 236 231 235 265 281 271 259 257 249 237 227 207 209 208 209 214 213 209 209 210 212 214 214 216
199 202 212 208 209 221 222 251 246 265 309 204 228 234 233 227 220 220 227 244 236 224 220 235 244 228 258 260 243 229 212 197 199 199 192 194 188 188 193 200 206 211 210 206
221 210 198 209 216 213 230 220 252 262 255 224 209 235 208 210 213 218 220 231 219 201 216 255 264 268 255 254 234 214 197 190 189 185 194 200 204 204 207 198 193 185 194 204
206 210 204 206 212 218 241 228 237 255 253 262 217 259 213 181 207 209 218 228 230 228 254 280 273 264 250 216 199 191 184 181 176 176 192 201 224 203 185 185 186 197 208 214
229 207 207 214 215 227 240 231 245 249 250 240 248 236 179 170 205 165 135 127 141 165 161 176 224 221 175 190 180 164 155 145 145 147 148 160 170 206 214 213 224 228 231 235
215 199 212 218 209 208 201 201 204 210 223 238 221 219 248 75 87 116 121 111 116 116 116 110 101 87 96 121 136 135 116 103 99 105 104 91 68 355 300 285 265 266 257 252
202 211 207 190 227 191 203 216 236 207 209 214 164 227 226 98 106 109 102 104 106 102 96 91 89 94 91 88 91 108 109 90 86 84 70 50 20 329 299 291 284 272 270 268
204 218 194 219 214 240 189 223 258 272 269 273 169 150 132 120 124 123 115 108 100 93 97 97 95 92 84 78 74 72 73 68 56 47 41 33 16 6 337 321 305 288 279 275
211 207 183 194 231 227 265 212 198 230 237 235 181 176 214 165 150 139 126 114 107 103 95 88 86 82 78 80 72 63 58 54 47 33 18 360 341 328 317 306 293 284 281 282
194 199 194 164 202 210 198 221 239 275 260 225 228 232 101 153 145 138 120 112 106 100 96 88 80 72 64 58 54 48 39 31 19 358 338 324 314 305 298 290 284 283 283 279
205 224 184 215 82 299 323 267 227 219 221 248 271 126 71 124 135 139 123 111 100 95 91 84 76 69 61 51 41 31 9 358 347 332 319 313 304 300 294 291 290 286 284 282
169 181 180 179 195 202 224 213 274 311 307 219 224 180 130 131 139 131 127 122 116 107 83 59 49 42 32 21 10 356 345 340 331 321 312 305 303 297 291 289 285 285 284 280
148 170 217 229 297 183 197 199 200 212 222 248 252 141 171 173 146 137 135 138 135 121 97 62 32 24 14 360 347 335 326 324 318 310 304 299 295 294 293 291 288 287 284 284
164 193 193 156 205 173 177 179 185 210 225 228 161 213 170 177 176 169 168 171 166 150 82 29 3 355 343 336 325 317 315 313 311 305 302 299 298 296 295 293 290 289 288 287
146 142 158 158 210 229 214 202 203 212 195 239 202 222 216 100 197 168 180 202 233 25 3 351 343 339 333 328 322 320 314 313 311 306 304 304 302 298 295 295 296 297 296 294
137 148 176 162 176 193 236 227 218 221 212 243 238 24 116 154 180 158 160 180 81 54 335 329 325 324 323 320 315 310 311 311 307 302 301 303 305 305 305 305 302 297 295 294
146 151 145 127 168 216 53 164 230 200 180 186 112 97 95 106 123 131 71 61 17 343 332 328 327 322 319 316 311 313 313 310 309 309 312 316 316 309 306 302 299 296 293 291
145 123 128 169 197 84 141 116 147 155 132 100 122 117 101 110 175 126 84 22 347 334 325 324 323 319 316 315 320 318 316 315 314 318 318 314 310 307 305 301 299 297 294 290
107 101 118 157 183 196 112 118 11 255 121 119 109 76 28 329 259 111 358 351 341 332 329 325 322 315 314 321 321 316 313 314 318 317 311 310 308 305 304 304 299 293 289 283
140 143 171 146 155 107 113 102 295 215 105 100 77 50 33 18 4 336 339 337 336 333 332 328 323 319 326 321 315 311 313 316 310 308 309 312 312 307 299 294 295 293 290 284
155 148 166 184 174 162 152 169 296 104 100 86 65 40 18 360 346 344 339 340 339 337 332 331 324 322 318 315 320 316 313 308 310 312 311 310 304 300 304 305 301 302 297 293
157 128 158 157 92 96 79 86 92 101 96 70 59 39 18 6 355 346 342 341 339 331 328 326 323 318 320 327 319 309 308 316 316 314 309 306 311 314 318 313 305 308 307 294
121 151 122 142 118 105 94 90 88 90 90 81 66 49 36 16 7 350 342 340 333 334 330 328 329 328 324 319 320 316 321 323 320 310 308 311 314 316 321 322 320 317 298 300
17 160 132 94 108 106 111 99 104 100 94 84 72 58 45 27 10 353 343 341 339 334 338 338 332 324 327 335 332 331 329 325 316 311 311 312 316 321 324 319 315 311 303 300
160 160 171 184 164 139 134 115 128 111 91 81 63 61 51 33 13 3 357 351 346 346 346 343 342 341 343 342 337 336 331 326 319 317 317 315 315 322 321 320 320 325 320 316
Height
737 742 742 735 737 732 727 732 731 724 718 723 725 725 719 715 724 723 722 723 723 724 728 738 743 742 743 744 744 745 748 751 754 756 758 761 763 765 767 770 773 776 778 781
739 737 727 729 731 736 737 736 729 716 709 714 720 721 710 708 708 711 718 720 720 721 726 735 741 742 743 742 741 745 746 748 752 753 755 757 760 761 763 767 770 773 775 777
725 719 721 727 731 736 733 738 726 722 713 709 716 718 711 701 701 704 706 708 708 712 723 733 734 738 736 735 738 743 746 745 748 751 755 758 760 760 761 763 766 769 772 774
721 708 718 724 726 724 730 719 724 720 725 725 707 716 702 698 701 701 701 703 701 704 714 723 730 730 734 735 739 742 744 746 748 750 754 756 756 755 757 760 763 766 771 772
715 711 715 719 716 712 719 710 718 720 720 716 713 712 684 689 701 698 697 699 701 702 708 718 721 726 728 733 738 740 743 745 747 747 751 754 754 754 757 759 762 764 767 769
700 696 702 703 702 705 704 713 716 716 717 728 709 707 695 690 690 691 700 710 714 717 723 728 732 728 729 733 735 739 740 743 744 746 749 752 753 755 755 758 759 761 764 766
705 702 696 693 705 701 707 714 726 734 728 724 695 708 695 691 693 696 707 713 719 724 724 725 726 728 730 730 734 738 740 742 745 747 749 751 753 756 758 758 758 760 760 763
706 716 697 692 697 700 705 704 707 726 715 706 700 713 693 697 703 704 709 717 722 728 730 731 732 734 737 739 739 741 743 745 748 750 751 752 755 756 758 759 761 761 761 761
694 700 684 690 690 689 694 707 688 705 698 702 693 700 703 702 707 711 717 721 727 729 732 734 738 741 740 742 743 744 745 746 748 751 752 754 756 757 759 759 759 760 760 758
682 698 687 689 689 687 694 683 709 701 721 720 703 701 697 707 712 715 719 725 728 731 736 737 740 742 745 747 747 748 749 750 752 754 756 757 758 758 758 757 758 759 757 755
674 684 703 695 697 695 699 697 693 694 697 714 715 709 683 696 707 715 719 723 726 731 736 738 740 742 744 746 746 751 751 751 754 758 758 758 757 757 757 757 757 755 751 751
670 685 706 700 696 699 698 695 687 707 711 703 701 710 700 701 710 716 721 725 729 732 736 740 741 745 747 749 753 756 757 756 756 757 758 756 757 755 754 753 750 749 747 746
678 690 715 713 708 700 701 701 701 702 701 710 713 716 709 711 715 718 725 730 733 737 740 742 743 746 748 751 752 754 755 755 756 757 756 755 753 752 751 748 748 744 742 740
672 697 699 702 706 691 704 703 701 705 723 718 717 745 727 724 723 725 728 730 733 738 744 748 750 750 751 753 755 757 757 756 756 756 755 753 751 749 745 744 742 739 738 734
676 692 694 707 704 695 695 701 704 706 704 714 706 715 716 718 721 725 729 733 737 741 746 750 754 754 755 758 760 759 759 757 755 754 751 749 746 743 740 739 738 735 731 727
683 692 694 712 710 703 702 702 705 708 709 713 715 718 709 717 721 729 732 736 737 742 747 751 752 752 754 756 757 756 755 753 752 749 746 743 741 740 739 736 732 728 724 720
682 690 696 700 707 707 709 699 702 707 711 714 718 714 716 727 729 733 736 740 744 751 754 755 757 757 757 756 757 755 752 750 749 747 745 741 739 736 733 729 726 722 718 716
683 689 692 700 710 715 710 703 703 705 715 715 720 725 726 729 735 736 739 745 750 753 753 754 754 756 756 757 756 753 750 747 744 741 738 736 734 732 729 724 720 717 714 711
680 689 706 712 707 712 714 709 708 707 724 718 722 726 729 732 732 744 751 754 755 756 756 755 756 755 754 752 750 748 745 742 739 737 736 735 732 728 724 720 716 712 708 704
696 694 708 709 718 713 707 716 715 710 737 727 726 730 734 731 724 751 751 753 754 755 755 755 754 753 750 749 748 746 743 741 739 738 736 732 728 724 719 715 711 706 701 697
704 707 717 710 716 714 720 722 719 721 744 732 733 738 740 740 748 751 752 754 755 755 755 755 753 750 749 749 747 745 742 742 740 736 732 727 723 719 715 709 704 699 693 689
710 718 721 715 722 727 719 720 725 734 734 738 743 747 747 750 751 753 754 755 756 757 757 756 754 752 751 748 746 744 743 740 737 733 729 724 720 714 708 703 697 690 686 681
711 709 713 711 721 724 724 728 732 735 740 746 750 755 755 755 756 756 757 759 761 761 759 757 754 752 748 747 746 743 739 737 733 729 725 720 713 708 703 698 691 685 681 675
706 704 706 711 727 731 737 740 742 745 750 755 758 760 761 761 763 764 765 764 763 761 759 756 753 751 750 747 743 741 737 734 731 727 722 716 709 704 699 693 686 679 675 670
710 708 709 725 738 741 743 746 753 756 756 759 762 764 766 768 770 771 768 766 764 762 759 757 755 751 747 745 742 738 735 733 729 724 719 713 706 700 695 689 683 677 670 665
710 711 712 719 726 727 744 755 758 756 759 763 764 764 767 770 772 772 770 768 766 763 760 756 753 749 747 744 740 738 735 731 727 722 717 711 706 700 694 687 678 671 665 659